Wind_Speed
11 11 10 10 10 10 10 9 8 8 7 7 7 7 7 8 8 7 7 7 7 7 7 7 6 6 6 5 5 5 4 4 4 4 4 4 4 4 5 5 5 5
12 12 11 11 11 10 9 9 8 8 7 7 7 6 6 7 8 7 7 7 6 7 7 7 7 7 7 6 6 6 5 5 5 5 5 5 5 5 5 6 6 6
14 14 13 12 11 10 9 9 8 7 7 7 7 6 6 6 7 7 7 7 6 7 7 7 7 7 7 7 6 6 6 6 6 6 6 6 6 6 7 7 7 8
16 15 14 13 12 12 11 10 9 8 7 7 7 7 7 7 7 7 7 6 6 6 7 6 6 7 7 6 6 6 6 6 6 6 6 7 7 7 7 8 8 9
17 16 15 14 14 13 13 12 10 9 8 8 8 8 8 8 8 7 7 7 6 6 6 6 7 7 7 6 6 6 6 6 6 6 6 7 7 7 8 8 9 9
17 17 16 15 15 14 14 13 12 11 10 10 10 9 9 9 9 8 8 8 8 7 7 7 7 7 7 7 7 6 6 7 7 7 7 7 7 8 8 9 9 9
18 18 17 17 16 16 15 14 14 14 13 12 12 11 10 10 9 9 9 9 9 8 8 8 8 8 8 8 8 7 7 8 8 7 7 7 8 9 9 9 9 9
20 19 18 18 18 17 16 16 16 15 15 15 14 13 12 12 11 11 10 11 10 10 10 10 10 9 9 9 9 9 9 9 9 9 8 9 9 10 10 9 9 9
21 20 20 19 19 19 18 18 18 17 16 16 15 14 14 13 13 12 12 12 12 12 12 12 11 11 11 10 10 11 11 11 10 10 10 10 10 10 10 10 9 10
23 22 21 21 21 20 20 19 19 18 18 18 17 16 15 15 14 14 14 14 13 13 13 13 13 13 13 12 12 12 12 12 12 11 11 11 11 11 11 10 10 10
24 23 23 23 23 22 21 20 20 20 19 19 18 17 16 16 15 15 14 14 14 13 13 14 14 14 15 14 14 14 14 13 13 13 13 13 12 12 12 11 11 11
26 26 25 25 25 24 23 22 21 21 20 20 19 18 18 18 17 16 16 15 15 14 14 14 14 15 15 15 15 14 14 13 13 13 14 14 14 14 13 13 13 13
27 28 28 27 27 26 25 23 22 22 22 21 21 20 20 20 20 20 19 18 17 16 16 16 16 16 16 16 15 15 14 13 13 13 14 14 15 15 15 15 15 15
30 30 31 30 29 28 26 25 24 24 24 24 23 23 23 23 23 23 22 22 21 20 19 19 19 19 19 19 18 17 15 14 13 13 14 15 15 15 16 16 16 16
31 31 32 32 32 30 29 27 27 27 27 26 26 25 25 25 25 25 24 24 23 23 22 21 21 21 22 21 21 20 19 17 16 16 16 16 16 16 16 16 16 16
30 30 31 32 33 32 31 30 29 29 28 28 28 27 27 26 26 25 25 25 25 24 23 23 23 23 23 23 22 22 21 20 19 18 18 18 18 17 17 17 17 16
28 27 28 29 30 31 31 31 30 30 30 29 29 28 27 26 25 25 25 25 25 25 24 24 24 24 24 24 23 22 21 21 20 20 20 20 20 19 19 19 18 18
29 27 26 27 27 28 30 31 31 30 30 29 28 28 27 26 25 26 27 27 26 26 25 24 23 23 23 23 23 22 22 21 21 20 20 21 21 21 20 20 19 18
34 30 27 27 27 26 26 28 29 29 29 28 28 28 27 25 25 26 28 28 27 26 25 23 22 22 22 21 21 21 21 21 21 20 20 20 21 21 21 21 20 19
38 35 32 31 30 28 27 26 26 27 29 29 29 29 28 26 26 27 28 28 26 25 23 22 21 21 21 21 20 20 20 20 20 20 20 21 22 22 23 22 22 21
38 37 37 37 35 33 32 29 27 27 29 29 28 28 28 28 29 29 28 26 24 22 21 21 21 21 21 21 20 20 20 20 20 21 21 22 22 23 24 24 24 24
41 40 41 41 39 37 36 34 31 30 30 28 27 28 29 30 29 28 27 25 23 22 23 23 23 22 22 21 21 21 22 22 22 22 22 22 23 24 25 26 27 27
44 42 43 42 39 39 38 37 35 34 31 29 30 31 31 31 30 29 28 26 25 25 25 25 25 24 24 24 24 25 25 25 24 24 24 24 25 25 27 28 29 30
48 45 46 46 43 41 41 38 35 34 33 33 34 35 34 33 32 31 30 29 28 28 28 28 28 28 28 28 28 29 30 30 30 29 28 28 27 28 29 30 31 31
50 47 45 45 45 43 41 39 37 35 34 34 36 37 36 34 33 32 32 32 31 30 30 30 30 30 31 31 31 31 32 33 33 33 33 32 31 31 31 32 33 34
43 44 42 42 42 40 37 36 37 37 36 35 36 38 37 35 33 32 32 32 31 29 29 28 28 28 28 28 28 29 29 29 31 33 34 34 34 34 34 35 36 37
Wind_Direction
190 187 186 183 182 182 181 182 184 185 184 180 179 179 178 179 180 182 185 186 185 185 189 192 194 196 200 206 211 215 222 230 236 242 250 259 266 275 285 291 297 303
197 196 195 191 189 189 187 189 191 191 189 187 187 186 187 188 185 182 184 186 187 189 192 195 199 201 205 211 218 223 228 234 243 251 259 267 274 280 285 291 296 300
202 202 201 198 194 194 196 198 200 199 196 195 193 191 192 197 193 186 186 188 190 194 196 197 201 205 208 215 222 228 233 239 244 253 263 272 278 283 286 291 294 293
205 206 205 203 201 200 202 205 206 206 202 200 204 207 205 202 198 195 196 198 200 203 204 203 205 209 213 218 225 231 237 244 248 252 259 267 272 279 284 288 288 287
208 209 208 208 208 207 207 209 209 209 208 209 214 220 220 213 205 204 205 207 210 213 215 216 218 218 219 222 227 233 241 247 252 255 258 264 270 275 278 280 280 281
210 210 210 211 213 215 214 214 214 213 211 214 219 223 225 222 215 213 213 212 215 219 223 225 227 227 227 230 232 236 243 249 254 259 263 268 274 277 278 279 281 285
214 212 212 214 216 220 220 220 221 220 218 219 221 224 227 227 224 223 224 223 223 225 228 229 229 230 231 235 239 241 245 249 254 260 264 269 272 274 277 281 286 292
217 216 215 216 219 222 224 225 226 227 226 226 227 227 230 232 232 232 234 235 235 235 236 236 234 233 233 236 241 244 247 250 255 257 261 265 268 271 275 280 284 288
222 220 220 220 222 224 225 228 230 232 232 234 234 233 233 233 233 235 238 240 240 241 242 243 243 241 239 240 243 247 250 252 255 259 261 264 266 269 272 275 279 282
228 226 224 225 227 228 228 230 232 234 236 237 238 239 238 235 232 233 237 239 241 242 244 245 247 248 246 246 248 251 252 252 254 259 263 265 267 268 269 272 275 279
236 234 231 230 231 232 232 232 234 236 238 239 240 241 242 240 237 235 236 240 242 242 245 246 248 250 251 251 252 253 253 254 254 256 260 263 266 268 269 272 275 277
239 239 237 235 235 235 235 235 236 238 240 241 241 242 244 245 245 242 240 241 243 244 247 249 252 254 254 253 252 252 253 253 255 257 259 262 264 266 269 271 273 274
238 240 240 240 238 238 237 238 239 240 242 243 243 245 247 248 249 249 248 246 246 247 248 251 254 255 256 255 253 253 252 252 254 256 257 260 263 265 267 269 270 270
235 237 240 241 240 239 238 239 240 241 243 244 245 247 248 250 251 252 253 252 250 249 249 250 253 255 256 257 256 255 254 252 252 252 253 255 258 260 263 264 266 267
233 234 237 240 241 240 239 239 239 241 244 245 246 247 248 249 251 251 253 254 253 252 251 250 251 254 256 257 258 258 258 257 255 252 251 252 253 255 258 261 264 266
232 232 234 237 239 240 240 240 240 242 244 246 247 248 248 248 250 252 253 255 256 256 255 253 252 253 255 257 258 258 259 259 259 257 255 254 253 254 255 257 259 262
238 236 236 237 238 239 239 239 240 241 243 246 247 249 250 251 252 253 254 255 256 256 256 255 254 254 255 256 257 258 258 258 259 259 258 256 254 253 252 251 252 255
244 243 243 243 241 242 241 239 239 241 243 245 248 250 251 253 254 253 252 251 252 253 254 254 253 253 254 256 257 258 258 257 258 258 258 256 254 253 251 248 247 249
242 242 245 248 246 245 248 247 244 243 245 245 246 247 247 248 250 252 253 253 252 251 252 252 252 253 254 256 257 258 258 258 258 257 256 254 251 250 249 249 249 249
243 241 241 246 249 246 247 251 250 246 245 243 241 241 240 237 239 245 251 252 251 252 253 254 254 254 255 256 258 258 258 258 257 256 255 253 250 249 249 252 255 256
245 242 239 244 251 246 239 241 246 246 246 244 242 242 242 238 235 239 245 248 250 253 256 256 256 256 256 256 257 258 259 259 258 256 255 255 254 253 254 256 259 261
242 241 240 243 249 245 236 234 236 238 241 242 241 241 244 243 241 242 246 248 249 251 254 255 257 258 259 259 260 261 261 261 261 260 259 258 257 258 259 260 262 264
239 239 238 239 243 242 237 235 233 232 233 235 236 238 240 241 242 245 247 247 248 250 253 255 257 258 259 260 261 264 265 264 264 263 262 261 261 262 263 265 267 269
236 237 237 238 239 239 237 238 236 233 232 232 232 235 238 238 240 244 247 248 250 253 256 258 258 258 258 258 259 262 264 265 265 264 263 263 263 264 266 267 270 272
234 235 238 239 241 241 239 239 239 236 236 236 237 238 240 241 243 246 248 250 251 253 256 258 259 259 258 259 260 263 264 264 263 263 263 263 263 263 265 267 270 271
234 236 239 240 242 242 241 240 237 236 237 239 240 241 243 245 249 252 253 253 253 254 256 257 259 260 259 260 263 265 267 266 264 263 263 262 262 262 263 266 268 270
Height
5939 5940 5941 5942 5943 5943 5944 5945 5945 5946 5947 5947 5948 5948 5949 5950 5950 5950 5950 5950 5951 5951 5952 5952 5952 5952 5952 5952 5952 5953 5953 5953 5954 5954 5954 5954 5954 5954 5954 5954 5954 5955
5938 5939 5940 5941 5942 5943 5944 5944 5945 5945 5946 5947 5947 5948 5949 5949 5950 5950 5950 5950 5951 5951 5951 5952 5952 5952 5952 5952 5952 5952 5953 5953 5953 5953 5953 5954 5954 5954 5954 5954 5954 5954
5937 5938 5939 5940 5941 5942 5943 5944 5944 5945 5945 5946 5947 5948 5948 5949 5949 5949 5950 5950 5950 5951 5951 5951 5951 5951 5951 5951 5952 5952 5952 5952 5952 5953 5953 5953 5953 5953 5953 5953 5953 5953
5935 5936 5938 5939 5940 5941 5942 5943 5943 5944 5945 5945 5946 5947 5947 5948 5948 5949 5949 5949 5949 5950 5950 5950 5950 5951 5951 5951 5951 5951 5951 5951 5951 5952 5952 5952 5952 5952 5952 5952 5952 5952
5934 5936 5937 5938 5939 5940 5941 5942 5942 5943 5944 5944 5945 5946 5947 5947 5947 5948 5948 5948 5948 5949 5949 5949 5949 5950 5950 5950 5950 5950 5950 5950 5950 5951 5951 5951 5951 5951 5951 5951 5951 5951
5934 5935 5936 5937 5938 5939 5940 5941 5941 5942 5942 5943 5944 5945 5945 5946 5946 5947 5947 5947 5948 5948 5948 5948 5948 5949 5949 5949 5949 5949 5949 5949 5949 5949 5950 5950 5950 5950 5950 5950 5950 5950
5933 5934 5935 5936 5937 5938 5939 5940 5940 5940 5941 5942 5942 5943 5944 5945 5945 5946 5946 5947 5947 5947 5947 5947 5947 5947 5948 5948 5948 5948 5948 5948 5948 5948 5948 5949 5949 5949 5949 5949 5949 5949
5932 5933 5934 5935 5936 5937 5938 5938 5939 5939 5940 5940 5941 5942 5942 5943 5944 5944 5945 5945 5945 5945 5946 5946 5946 5946 5946 5947 5947 5947 5947 5947 5947 5947 5947 5947 5947 5948 5948 5948 5948 5948
5930 5931 5933 5933 5934 5935 5936 5937 5938 5939 5939 5940 5940 5941 5941 5941 5942 5942 5943 5943 5943 5944 5944 5944 5945 5945 5945 5945 5945 5946 5946 5946 5946 5946 5946 5946 5946 5946 5947 5947 5947 5947
5929 5930 5931 5932 5932 5933 5934 5936 5937 5937 5938 5939 5939 5940 5939 5940 5940 5940 5940 5941 5941 5942 5942 5942 5943 5943 5943 5943 5944 5944 5944 5944 5945 5945 5945 5945 5945 5945 5945 5945 5946 5946
5929 5930 5930 5931 5931 5932 5933 5934 5935 5936 5937 5937 5938 5938 5938 5939 5939 5938 5938 5939 5939 5940 5940 5940 5941 5941 5941 5941 5942 5942 5942 5943 5943 5943 5943 5944 5944 5944 5944 5944 5944 5944
5927 5928 5929 5930 5930 5931 5932 5933 5934 5935 5935 5936 5936 5937 5937 5937 5937 5937 5937 5937 5938 5938 5938 5939 5939 5939 5939 5940 5940 5940 5940 5941 5941 5941 5942 5942 5942 5942 5942 5943 5943 5943
5925 5926 5927 5927 5928 5929 5930 5931 5932 5933 5934 5934 5934 5935 5935 5935 5935 5936 5936 5936 5936 5936 5936 5937 5937 5938 5938 5938 5938 5938 5938 5939 5939 5939 5939 5940 5940 5940 5940 5940 5941 5941
5921 5922 5923 5924 5925 5926 5928 5929 5930 5930 5931 5931 5932 5932 5932 5933 5933 5933 5934 5934 5934 5934 5934 5935 5935 5935 5936 5936 5937 5937 5937 5937 5937 5937 5937 5937 5937 5937 5938 5938 5938 5938
5916 5917 5919 5920 5921 5922 5924 5925 5926 5927 5927 5928 5929 5929 5929 5930 5930 5931 5931 5932 5932 5932 5932 5932 5933 5933 5933 5934 5935 5935 5935 5935 5935 5935 5935 5935 5935 5935 5935 5935 5936 5936
5912 5913 5914 5916 5917 5919 5920 5921 5922 5923 5924 5925 5925 5926 5926 5927 5928 5929 5929 5929 5930 5930 5930 5930 5930 5930 5931 5931 5932 5933 5933 5934 5933 5933 5933 5933 5933 5933 5933 5933 5933 5933
5909 5910 5911 5913 5914 5915 5916 5917 5918 5919 5920 5921 5922 5923 5923 5924 5925 5926 5926 5926 5926 5927 5927 5928 5928 5928 5928 5929 5929 5930 5931 5931 5931 5931 5931 5931 5931 5931 5930 5930 5931 5931
5907 5908 5910 5911 5912 5912 5913 5914 5915 5916 5918 5918 5919 5920 5921 5921 5922 5922 5922 5923 5923 5924 5924 5925 5925 5925 5926 5926 5927 5927 5928 5928 5928 5928 5928 5928 5928 5928 5928 5928 5928 5928
5903 5904 5906 5908 5909 5910 5911 5912 5913 5915 5916 5916 5916 5916 5917 5918 5918 5919 5919 5920 5921 5921 5921 5922 5922 5922 5923 5923 5923 5924 5924 5925 5925 5925 5925 5925 5925 5925 5925 5925 5925 5926
5899 5900 5903 5905 5907 5908 5909 5910 5912 5913 5912 5912 5912 5912 5913 5913 5913 5913 5915 5916 5917 5918 5919 5920 5920 5920 5920 5920 5920 5921 5921 5921 5922 5922 5923 5923 5923 5923 5923 5923 5923 5923
5896 5897 5899 5901 5903 5905 5905 5906 5908 5909 5909 5909 5910 5909 5910 5911 5910 5910 5911 5913 5914 5915 5916 5917 5917 5917 5918 5918 5918 5918 5918 5918 5919 5919 5920 5920 5920 5920 5920 5920 5920 5920
5892 5893 5894 5896 5898 5900 5900 5901 5903 5904 5904 5906 5907 5906 5906 5908 5909 5909 5909 5910 5911 5912 5912 5913 5913 5914 5914 5915 5915 5915 5916 5916 5916 5917 5917 5917 5917 5917 5917 5917 5917 5917
5888 5889 5889 5891 5893 5894 5895 5896 5897 5899 5900 5901 5901 5901 5902 5904 5905 5906 5906 5907 5908 5908 5909 5909 5910 5911 5911 5911 5912 5912 5912 5913 5914 5914 5914 5914 5914 5913 5913 5913 5913 5912
5883 5883 5884 5886 5888 5889 5890 5891 5892 5894 5895 5896 5896 5896 5898 5900 5901 5902 5903 5904 5904 5905 5905 5906 5907 5907 5908 5908 5908 5908 5908 5909 5909 5910 5910 5910 5910 5910 5909 5909 5909 5909
5876 5877 5879 5882 5884 5884 5885 5887 5889 5890 5891 5892 5892 5892 5894 5896 5897 5899 5900 5900 5901 5901 5901 5902 5903 5903 5904 5904 5904 5904 5904 5905 5905 5905 5905 5905 5905 5905 5905 5904 5904 5904
5870 5873 5875 5877 5879 5880 5881 5882 5883 5885 5886 5888 5888 5889 5890 5893 5894 5896 5896 5896 5896 5896 5897 5897 5898 5898 5899 5899 5900 5900 5900 5901 5901 5901 5900 5900 5900 5900 5900 5899 5899 5899